Regional Weather Roundup
Issued by NWS Little Rock, AR

Home | Current Version | Previous Version | Text Only | Print | Product List | Glossary On
Versions: 1 2 3 4 5 6 7 8 9 10 11 12 13 14 15 16 17 18 19 20 21 22 23 24 25 26 27 28 29 30 31 32 33 34 35 36 37 38 39 40 41 42 43 44 45 46 47 48 49 50
000
ASUS44 KLZK 240105
RWRLZK

WEATHER ROUNDUP FOR ARKANSAS
NATIONAL WEATHER SERVICE LITTLE ROCK AR
700 PM CST THU FEB 23 2017

NOTE: "FAIR" INDICATES FEW OR NO CLOUDS BELOW 12,000 FEET WITH NO
SIGNIFICANT WEATHER AND/OR OBSTRUCTIONS TO VISIBILITY.

ARZ001-003-010-029-240200-
NORTHWEST ARKANSAS

CITY           SKY/WX    TMP DP  RH WIND       PRES   REMARKS
FAYETTEVILLE   CLEAR     71  50  47 S13       29.49R
FORT SMITH     CLEAR     76  47  35 VRB5      29.50R
HARRISON       CLEAR     70  51  51 S22G31    29.51R
BENTONVILLE    CLEAR     73  45  35 S13G22    29.49R
ROGERS         CLEAR     73  48  41 S15       29.49R
SILOAM SPGS    CLEAR     73  46  38 S14G21    29.47R
HIGHFILL       PTCLDY    73  48  41 S18G29    29.47R
SPRINGDALE     PTCLDY    73  48  40 S16G24    29.50R
$$

ARZ004-005-016-240200-
NORTH CENTRAL ARKANSAS

CITY           SKY/WX    TMP DP  RH WIND       PRES   REMARKS
BATESVILLE     CLEAR     68  55  64 SE7       29.61R
FLIPPIN        CLEAR     72  52  49 S9        29.51S
MTN HOME       CLEAR     69  55  60 S7        29.53R
$$

ARZ040-041-240200-
WEST CENTRAL ARKANSAS

CITY           SKY/WX    TMP DP  RH WIND       PRES   REMARKS
MENA           CLEAR     75  54  46 SE12G24   29.55F
MOUNT IDA      CLEAR     74  53  48 S8        29.56R
$$

ARZ009-017-025-026-028-240200-
NORTHEAST ARKANSAS

CITY           SKY/WX    TMP DP  RH WIND       PRES   REMARKS
CORNING        FAIR      66  57  72 S10       29.60S
JONESBORO      CLEAR     67  56  67 S9        29.61S
NEWPORT        CLEAR     64  56  75 S10       29.61R
WALNUT RIDGE   PTCLDY    64  54  68 S13       29.60S
BLYTHEVILLE    CLEAR     67  55  65 S8        29.63F
$$

ARZ022-023-033-042-044-240200-
CENTRAL ARKANSAS

CITY           SKY/WX    TMP DP  RH WIND       PRES   REMARKS
LITTLE ROCK    PTCLDY    68  56  65 SE7       29.60S
N LITTLE ROCK    N/A     71  58  63 S9G18     29.61R
JACKSONVILLE   CLEAR     71  58  65 S6        29.60R
SEARCY         CLEAR     67  59  75 S13       29.62S
HOT SPRINGS    CLEAR     73  56  54 S7        29.59R
RUSSELLVILLE   CLEAR     70  53  54 SE5       29.56R
CLINTON        FAIR      70  57  64 SE6       29.58S
$$

ARZ036-240200-
EAST ARKANSAS

CITY           SKY/WX    TMP DP  RH WIND       PRES   REMARKS
WEST MEMPHIS   CLEAR     67  56  67 S10       29.64S
$$

ARZ050-053-066-070-073-240200-
SOUTHWEST ARKANSAS

CITY           SKY/WX    TMP DP  RH WIND       PRES   REMARKS
ARKADELPHIA    FAIR      70  58  65 S6        29.60R
CAMDEN         CLEAR     70  52  52 SE7       29.61R
TEXARKANA      CLEAR     72  56  57 S8        29.59R
EL DORADO      CLEAR     72  56  57 S8        29.63R
DE QUEEN       CLEAR     76  52  43 S6        29.54R
$$

ARZ056-057-069-240200-
SOUTHEAST ARKANSAS

CITY           SKY/WX    TMP DP  RH WIND       PRES   REMARKS
PINE BLUFF     CLEAR     69  57  65 SE13      29.62S
STUTTGART      CLEAR     70  52  52 S16       29.63S
MONTICELLO     CLEAR     71  56  58 S9        29.64S

$$





USA.gov is the U.S. government's official web portal to all federal, state and local government web resources and services.